Home   Weather   Corrientes   Past weeks

Flag for Argentina Past Weather in Corrientes, Corrientes, Argentina — Yesterday and Last 2 Weeks

Now
77 °F

Clear.


Feels Like: 79 °F
Forecast: 71 / 93 °F
Wind: 6 mph from South

Location: Resistencia Aero.

Current Time: Jan 20, 2017 at 12:50:45 am

Latest Report: Jan 20, 2017 at 12:00 am


Visibility: 10 mi

Pressure: 29.92 "Hg

Humidity: 74%

Dew Point: 68 °F

Location of CorrientesLocation

Past Weather in Corrientes — Graph

°F

Corrientes Temperature Yesterday

Maximum temperature yesterday: 95 °F (at 2:00 pm)
Minimum temperature yesterday: 73 °F (at 5:00 am)
Average temperature yesterday: 85 °F

High & Low Weather Summary for the Past Weeks

 TemperatureHumidityPressure
High99 °F (Jan 9, 3:00 pm)100% (Jan 5, 5:00 am)29.95 "Hg (Jan 5, 5:00 am)
Low68 °F (Jan 10, 5:00 pm)34% (Jan 19, 2:00 pm)29.47 "Hg (Jan 9, 6:00 pm)
Average82 °F78%29.75 "Hg
* Reported Jan 4 11:00 pm — Jan 19 11:00 pm, Corrientes, Weather by CustomWeather, © 2017

Note: Actual official high and low records may vary slightly from our data, if they occured in-between our weather recording intervals... More about our weather records

Advertising

Corrientes Weather History for the Previous 24 Hours

Scroll right to see more
 ConditionsComfort  
Time TempWeatherWind HumidityBarometerVisibility
11:00 pm
Thu, Jan 19
79 °FClear.7 mph65%29.89 "Hg5 mi
10:00 pm81 °FClear.7 mph66%29.86 "Hg5 mi
9:00 pm82 °FClear.7 mph62%29.86 "Hg10 mi
8:00 pm86 °FClear.8 mph52%29.83 "Hg10 mi
7:00 pm90 °FSunny.12 mph43%29.83 "Hg10 mi
6:00 pm93 °FSunny.12 mph41%29.83 "Hg10 mi
5:00 pm93 °FSunny.12 mph41%29.86 "Hg10 mi
4:00 pm93 °FSunny.13 mph36%29.86 "Hg10 mi
3:00 pm93 °FSunny.10 mph41%29.86 "Hg10 mi
2:00 pm95 °FSunny.12 mph34%29.89 "Hg10 mi
1:00 pm91 °FSunny.8 mph44%29.92 "Hg10 mi
12:00 pm91 °FSunny.10 mph44%29.92 "Hg10 mi
11:00 am90 °FSunny.8 mph46%29.92 "Hg10 mi
10:00 am86 °FPassing clouds.7 mph55%29.92 "HgN/A
9:00 am84 °FSunny.7 mph62%29.92 "Hg10 mi
8:00 am81 °FSunny.8 mph70%29.92 "Hg10 mi
7:00 am79 °FSunny.5 mph74%29.89 "Hg10 mi
5:00 am73 °FClear.3 mph89%29.86 "Hg10 mi
4:00 am75 °FClear.1 mph89%29.89 "Hg10 mi
3:00 am77 °FClear.3 mph83%29.89 "Hg10 mi
2:00 am79 °FClear.6 mph79%29.89 "Hg10 mi
1:00 am79 °FClear.8 mph79%29.89 "Hg10 mi
12:00 am79 °FClear.5 mph84%29.86 "Hg10 mi
Weather by CustomWeather, © 2017

See weather overviewHow to use our weather pages